Regional Weather Roundup
Issued by NWS

Home | Current Version | Previous Version | Graphics & Text | Print | Product List | Glossary On
Versions: 1 2 3 4 5 6 7 8 9 10 11 12 13 14 15 16 17 18 19 20 21 22 23 24 25 26 27 28 29 30 31 32 33 34 35 36 37 38 39 40 41 42 43 44 45 46 47 48 49 50
000
ASUS43 KMKX 010000
RWRWI

WISCONSIN REGIONAL WEATHER ROUNDUP
NATIONAL WEATHER SERVICE MILWAUKEE/SULLIVAN WI
700 PM CDT FRI OCT 31 2014

NOTE: "FAIR" INDICATES FEW OR NO CLOUDS BELOW 12,000 FEET WITH NO
SIGNIFICANT WEATHER AND/OR OBSTRUCTIONS TO VISIBILITY.

WIZ001-002-006>008-014>016-023>028-010100-
NORTHWEST WISCONSIN

CITY           SKY/WX    TMP DP  RH WIND       PRES   REMARKS
SUPERIOR ARPT  CLEAR     28  20  70 CALM      30.50S
ASHLAND        CLEAR     26  21  81 CALM      30.51R
6HR MIN TEMP:  26; 6HR MAX TEMP:  38;

HAYWARD        CLEAR     32  18  56 N5        30.49R WCI  27
6HR MIN TEMP:  32; 6HR MAX TEMP:  37;

SIREN          CLEAR     30  18  62 CALM      30.50R
CUMBERLAND     CLEAR     28  19  69 N5        30.48R WCI  23
RICE LAKE      CLEAR     32  19  57 CALM      30.50R
6HR MIN TEMP:  32; 6HR MAX TEMP:  38;

CHETEK         CLEAR     33  20  58 CALM      30.48R
LADYSMITH      CLEAR     30  21  70 N3        30.49R
6HR MIN TEMP:  29; 6HR MAX TEMP:  38;

EAU CLAIRE     NOT AVBL
MENOMONIE      CLEAR     35  18  51 NW3       30.48S
NEW RICHMOND   CLEAR     31  17  55 N5        30.49S WCI  26
OSCEOLA        CLEAR     34  17  49 NW3       30.53R
$$

WIZ003>005-009-010-017-018-010100-
NORTH CENTRAL WISCONSIN

CITY           SKY/WX    TMP DP  RH WIND       PRES   REMARKS
MANITOWISH WTR CLOUDY    27  22  82 N3        30.45R
ARBOR VITAE    PTCLDY    29  22  74 N6        30.44R WCI  23
WOODRUFF       PTCLDY    29  22  74 N6        30.44R WCI  23
RHINELANDER    CLOUDY    29  21  72 VRB5      30.43R WCI  24
6HR MIN TEMP:  29; 6HR MAX TEMP:  32; 6HR PCP: TRACE;

EAGLE RIVER    CLOUDY    29  21  72 N9        30.43R WCI  20
LAND O LAKES   CLOUDY    29  20  68 N9        30.44R WCI  21
PHILLIPS       MOCLDY    28  19  68 N3        30.46R
6HR MIN TEMP:  28; 6HR MAX TEMP:  34;

TOMAHAWK       CLOUDY    31  20  65 N8        30.44R WCI  23
MEDFORD        CLOUDY    30  21  69 N8        30.44R WCI  22
MERRILL        CLOUDY    31  22  67 N6        30.43R WCI  25
$$

WIZ029-030-035-036-043>047-010100-
CENTRAL WISCONSIN

CITY           SKY/WX    TMP DP  RH WIND       PRES   REMARKS
WAUSAU         MOCLDY    32  19  58 VRB3      30.42R
6HR MIN TEMP:  32; 6HR MAX TEMP:  37;

MOSINEE        PTCLDY    30  19  64 N8        30.43S WCI  23
MARSHFIELD     PTCLDY    32  19  58 N6        30.43R WCI  26
6HR MIN TEMP:  32; 6HR MAX TEMP:  39;

STEVENS POINT  CLEAR     30  17  57 N6        30.43R WCI  24
WAUPACA        MOCLDY    36  18  48 N8        30.42R WCI  29
WAUTOMA        NOT AVBL
WISC RAPIDS    CLEAR     30  18  60 N6        30.44S WCI  24
6HR MIN TEMP:  30; 6HR MAX TEMP:  40;

CAMP DOUGLAS   NOT AVBL
$$

WIZ011>013-019>022-031-037>040-048>050-010100-
NORTHEAST WISCONSIN

CITY           SKY/WX    TMP DP  RH WIND       PRES   REMARKS
ANTIGO         MOCLDY    28  18  66 N7        30.41S WCI  21
SHAWANO        CLOUDY    36  20  51 N15       30.43R WCI  26
6HR MIN TEMP:  36; 6HR MAX TEMP:  41;

OCONTO         MOCLDY    32  22  67 N9        30.42R WCI  24
STURGEON BAY   CLOUDY    36  21  55 N24       30.40R WCI  24
6HR MIN TEMP:  34; 6HR MAX TEMP:  36;

GREEN BAY      MOCLDY    35  20  54 N15       30.42R WCI  25
6HR MIN TEMP:  34; 6HR MAX TEMP:  41;

MANITOWOC      NOT AVBL
APPLETON       MOCLDY    34  18  51 N14       30.41R WCI  24
CLINTONVILLE   PTCLDY    32  18  55 N7        30.43R WCI  26
OSHKOSH        PTCLDY    34  19  54 N12       30.40R WCI  25
6HR MIN TEMP:  34; 6HR MAX TEMP:  41;

$$

WIZ032>034-041-042-053>061-010100-
SOUTHWEST WISCONSIN

CITY           SKY/WX    TMP DP  RH WIND       PRES   REMARKS
LA CROSSE      CLEAR     36  20  52 N8        30.46R WCI  30
6HR MIN TEMP:  36; 6HR MAX TEMP:  44;

SPARTA         CLEAR     35  19  51 N3        30.45S
VIROQUA        CLEAR     33  19  58 N7        30.41S WCI  26
BOSCOBEL       CLEAR     36  16  44 N6        30.44R WCI  31
6HR MIN TEMP:  36; 6HR MAX TEMP:  44;

PRAIRIE DU CHI CLEAR     37  16  41 N5        30.44R WCI  34
PLATTEVILLE    CLEAR     33  19  58 N9        30.41S WCI  25
$$

WIZ056-057-062-063-064-067-068-010100-
SOUTH CENTRAL WISCONSIN

CITY           SKY/WX    TMP DP  RH WIND       PRES   REMARKS
REEDSBURG      CLEAR     33  18  53 N7        30.42R WCI  27
BARABOO/DELLS  PTCLDY    34  16  47 N10       30.41R WCI  26
LONE ROCK      NOT AVBL
MINERAL POINT  CLEAR     34  18  51 N8        30.40R WCI  27
MADISON        PTCLDY    33  17  51 N7        30.41R WCI  27
6HR MIN TEMP:  33; 6HR MAX TEMP:  40;

MIDDLETON      CLEAR     33  18  54 N7        30.40S WCI  27
WATERTOWN      MOCLDY    35  19  53 N12G18    30.37R WCI  26
MONROE         PTCLDY    34  19  55 N10G22    30.38R WCI  26
JANESVILLE     NOT AVBL
$$

WIZ051-052-058>065-066-070>072-010100-
SOUTHEAST WISCONSIN

CITY           SKY/WX    TMP DP  RH WIND       PRES   REMARKS
MILWAUKEE      MOCLDY    36  17  46 N20G33    30.35R WCI  25
6HR MIN TEMP:  36; 6HR MAX TEMP:  39;

WAUKESHA       MOCLDY    34  18  51 N12G24    30.37R WCI  25
MILWAUKEE/TIMM MOCLDY    36  16  44 N20G29    30.37R WCI  25
RACINE         CLOUDY    38  22  52 N25G38    30.35R WCI  27
6HR MIN TEMP:  37; 6HR MAX TEMP:  39; 6HR PCP: TRACE;

BURLINGTON     MOCLDY    34  16  47 N15G29    30.35R WCI  24
KENOSHA        CLOUDY    37  20  50 N21G33    30.33R WCI  26
6HR MIN TEMP:  37; 6HR MAX TEMP:  39;

FOND DU LAC    MOCLDY    36  19  50 N21       30.40R WCI  25
6HR MIN TEMP:  36; 6HR MAX TEMP:  40;

SHEBOYGAN      CLOUDY    35  19  52 N13G21    30.38R WCI  26
6HR MIN TEMP:  35; 6HR MAX TEMP:  37;

WEST BEND      CLOUDY    34  18  51 N14       30.37R WCI  24
JUNEAU         CLOUDY    34  19  53 N12       30.39R WCI  25
$$

LSZ147-162-010100-
LAKE SUPERIOR

STATION/POSITION TIME  TEMP    WIND        PRES    WAVE
                       AIR SEA DIR/SP/G            HT/PER
                 (UTC) (F)     (DEG/KT/KT) (MB)    (FT/S)
W MID LAKE BUOY  2250   36 43  310/ 10/ 12 1032.8R   4/ 7
DEVILS ISLAND    2300   35     310/  4/  5 1033.8R
PORT WING        2300   36     230/  2/  4 1032.8S
SAXON HARBOR     2300   35     350/  3/  8 1032.5
$$

LMZ867-665-643>646-010100-
LAKE MICHIGAN

STATION/POSITION TIME  TEMP    WIND        PRES    WAVE
                       AIR SEA DIR/SP/G            HT/PER
                 (UTC) (F)     (DEG/KT/KT) (MB)    (FT/S)
CHAMBERS ISLAND  2300   36     340/ 25/ 31 1028.8R
N MID LAKE BUOY  2250   36 47  360/ 25/ 33 1027.8R   8/ 7
NORTHPORT PIER   2318   36     350/ 25/ 27 1029.1R
SISTER BAY       2258          360/ 17/ 25   N/A
KEWAUNEE LAKESHO 2300   36     350/ 11/ 19 1027.4R
SHEBOYGAN LAKESH 2300   37 47   10/ 31/ 33 1028.7R
PORT WASHINGTON  2340   37     360/  9/ 20 1028.8R
ATWATER BUOY     2300   40     360/ 27/ 33 1027.2R
MILWAUKEE LAKESH 2300   38     350/ 18/ 25   N/A
S MID LAKE BUOY  2250   40 47  360/ 31/ 39 1024.1R  16/10
KENOSHA   LAKESH 2300   38     340/ 27/ 35 1025.4R
$$

TC  - TEMPERATURE IN CELSIUS
VSB - VISIBILITY IN STATUTE MILES
WCI - WIND CHILL INDEX
HX  - HEAT INDEX




USA.gov is the U.S. government's official web portal to all federal, state and local government web resources and services.